GSAT0218 (PRN E31)

Last updated on June 16, 2019, 3:38 a.m. UTC

1 43058U 17079D   19165.89477522 -.00000069  00000-0  00000+0 0  9995
2 43058  56.5608 291.8959 0003815 238.2366 121.7027  1.70474476  9359
UTC
Height (km)
Latitude
Longitude
Inclination
Orbital Period
UTC large
Height (km)
Speed (km/s)
/
Latitude / Longitude
Inclination (degrees)
Orbital Period (minutes)
Azimuth
Elevation
Range (km)
Doppler Factor
iOS Compass Heading
iOS Angle

Next 30 passes for location: Hong Kong

Rise time Rise Azimuth (degrees) Set time Set Azimuth (degrees) Duration Max altitude (degrees)

No matching passes for this satellites